Time,TemperatureF,DewpointF,PressureIn,WindDirection,WindDirectionDegrees,WindSpeedMPH,WindSpeedGustMPH,Humidity,HourlyPrecipIn,Conditions,Clouds,dailyrainin,SoftwareType,DateUTC
2013-01-18 00:10:00,25.4,15.0,30.28,NW,317,1.0,4.0,66,0.00,,,0.30,weatherlink.com 1.10,2013-01-18 05:10:00,
2013-01-18 00:25:00,25.1,13.0,30.27,WNW,285,4.0,7.0,61,0.00,,,0.30,weatherlink.com 1.10,2013-01-18 05:25:00,
2013-01-18 00:40:00,24.9,14.0,30.28,WSW,246,4.0,9.0,63,0.00,,,0.30,weatherlink.com 1.10,2013-01-18 05:40:00,
2013-01-18 00:55:00,24.5,12.0,30.26,West,278,1.0,9.0,60,0.00,,,0.30,weatherlink.com 1.10,2013-01-18 05:55:00,
2013-01-18 01:10:00,24.3,13.0,30.29,West,263,5.0,7.0,62,0.00,,,0.30,weatherlink.com 1.10,2013-01-18 06:10:00,
2013-01-18 01:25:00,24.1,12.0,30.31,West,271,4.0,8.0,60,0.00,,,0.30,weatherlink.com 1.10,2013-01-18 06:25:00,
2013-01-18 01:40:00,24.0,12.0,30.30,WSW,249,3.0,6.0,60,0.00,,,0.30,weatherlink.com 1.10,2013-01-18 06:40:00,
2013-01-18 01:55:00,23.9,11.0,30.32,West,269,6.0,6.0,59,0.00,,,0.30,weatherlink.com 1.10,2013-01-18 06:55:00,
2013-01-18 02:10:00,23.7,12.0,30.32,WSW,254,2.0,6.0,60,0.00,,,0.30,weatherlink.com 1.10,2013-01-18 07:10:00,
2013-01-18 02:25:00,23.7,12.0,30.33,WSW,254,1.0,3.0,62,0.00,,,0.30,weatherlink.com 1.10,2013-01-18 07:25:00,
2013-01-18 02:40:00,23.6,13.0,30.31,WNW,295,3.0,4.0,64,0.00,,,0.30,weatherlink.com 1.10,2013-01-18 07:40:00,
2013-01-18 02:55:00,23.4,12.0,30.32,West,275,2.0,5.0,62,0.00,,,0.30,weatherlink.com 1.10,2013-01-18 07:55:00,
2013-01-18 03:10:00,23.2,13.0,30.34,West,273,1.0,6.0,65,0.00,,,0.30,weatherlink.com 1.10,2013-01-18 08:10:00,
2013-01-18 03:25:00,23.0,13.0,30.34,WNW,301,1.0,4.0,65,0.00,,,0.30,weatherlink.com 1.10,2013-01-18 08:25:00,
2013-01-18 03:40:00,22.8,12.0,30.35,SSW,204,4.0,7.0,63,0.00,,,0.30,weatherlink.com 1.10,2013-01-18 08:40:00,
2013-01-18 03:55:00,22.5,11.0,30.34,West,262,2.0,6.0,61,0.00,,,0.30,weatherlink.com 1.10,2013-01-18 08:55:00,
2013-01-18 04:11:00,22.2,11.0,30.35,WNW,286,4.0,10.0,63,0.00,,,0.30,weatherlink.com 1.10,2013-01-18 09:11:00,
2013-01-18 04:26:00,21.9,11.0,30.37,WNW,288,5.0,7.0,64,0.00,,,0.30,weatherlink.com 1.10,2013-01-18 09:26:00,
2013-01-18 04:41:00,21.8,11.0,30.37,South,191,4.0,7.0,63,0.00,,,0.30,weatherlink.com 1.10,2013-01-18 09:41:00,
2013-01-18 04:56:00,21.6,10.0,30.39,West,268,6.0,10.0,62,0.00,,,0.30,weatherlink.com 1.10,2013-01-18 09:56:00,
2013-01-18 05:11:00,21.1,10.0,30.40,WSW,246,4.0,10.0,63,0.00,,,0.30,weatherlink.com 1.10,2013-01-18 10:11:00,
2013-01-18 05:26:00,20.8,11.0,30.41,SSW,212,4.0,8.0,66,0.00,,,0.30,weatherlink.com 1.10,2013-01-18 10:26:00,
2013-01-18 05:41:00,20.6,11.0,30.42,WNW,294,1.0,9.0,66,0.00,,,0.30,weatherlink.com 1.10,2013-01-18 10:41:00,
2013-01-18 05:56:00,20.2,10.0,30.43,West,279,4.0,7.0,65,0.00,,,0.30,weatherlink.com 1.10,2013-01-18 10:56:00,
2013-01-18 06:11:00,19.9,9.0,30.45,West,262,6.0,9.0,62,0.00,,,0.30,weatherlink.com 1.10,2013-01-18 11:11:00,
2013-01-18 06:26:00,19.7,9.0,30.46,SSW,198,2.0,10.0,63,0.00,,,0.30,weatherlink.com 1.10,2013-01-18 11:26:00,
2013-01-18 06:41:00,19.7,9.0,30.48,SSE,161,4.0,9.0,63,0.00,,,0.30,weatherlink.com 1.10,2013-01-18 11:41:00,
2013-01-18 06:56:00,19.8,9.0,30.49,WSW,252,2.0,7.0,63,0.00,,,0.30,weatherlink.com 1.10,2013-01-18 11:56:00,
2013-01-18 07:11:00,19.7,9.0,30.50,SW,234,3.0,12.0,64,0.00,,,0.30,weatherlink.com 1.10,2013-01-18 12:11:00,
2013-01-18 07:26:00,19.7,9.0,30.52,WNW,301,4.0,8.0,64,0.00,,,0.30,weatherlink.com 1.10,2013-01-18 12:26:00,
2013-01-18 07:41:00,19.4,9.0,30.53,West,268,4.0,9.0,64,0.00,,,0.30,weatherlink.com 1.10,2013-01-18 12:41:00,
2013-01-18 07:56:00,19.3,9.0,30.54,West,279,4.0,8.0,63,0.00,,,0.30,weatherlink.com 1.10,2013-01-18 12:56:00,
2013-01-18 08:11:00,19.0,9.0,30.56,SW,232,3.0,6.0,64,0.00,,,0.30,weatherlink.com 1.10,2013-01-18 13:11:00,
2013-01-18 08:26:00,18.7,8.0,30.57,SSW,209,0.0,6.0,62,0.00,,,0.30,weatherlink.com 1.10,2013-01-18 13:26:00,
2013-01-18 08:41:00,18.7,8.0,30.58,WNW,294,1.0,5.0,62,0.00,,,0.30,weatherlink.com 1.10,2013-01-18 13:41:00,
2013-01-18 08:56:00,18.9,7.0,30.59,SSW,213,6.0,6.0,61,0.00,,,0.30,weatherlink.com 1.10,2013-01-18 13:56:00,
2013-01-18 09:11:00,19.5,7.0,30.61,SSW,196,5.0,9.0,59,0.00,,,0.30,weatherlink.com 1.10,2013-01-18 14:11:00,
2013-01-18 09:27:00,20.4,8.0,30.62,NW,309,3.0,7.0,59,0.00,,,0.30,weatherlink.com 1.10,2013-01-18 14:27:00,
2013-01-18 09:42:00,21.7,6.0,30.63,SW,228,0.0,10.0,51,0.00,,,0.30,weatherlink.com 1.10,2013-01-18 14:42:00,
2013-01-18 09:57:00,22.7,6.0,30.63,WSW,245,4.0,8.0,49,0.00,,,0.00,weatherlink.com 1.10,2013-01-18 14:57:00,
2013-01-18 10:12:00,23.1,6.0,30.64,SSW,198,2.0,9.0,48,0.00,,,0.00,weatherlink.com 1.10,2013-01-18 15:12:00,
2013-01-18 10:27:00,23.2,6.0,30.64,SSE,150,1.0,10.0,47,0.00,,,0.00,weatherlink.com 1.10,2013-01-18 15:27:00,
2013-01-18 10:42:00,23.8,6.0,30.65,SSW,200,2.0,11.0,47,0.00,,,0.00,weatherlink.com 1.10,2013-01-18 15:42:00,
2013-01-18 10:57:00,24.9,7.0,30.64,SSW,210,7.0,10.0,46,0.00,,,0.00,weatherlink.com 1.10,2013-01-18 15:57:00,
2013-01-18 11:12:00,24.2,7.0,30.64,SSW,209,4.0,14.0,47,0.00,,,0.00,weatherlink.com 1.10,2013-01-18 16:12:00,
2013-01-18 11:27:00,25.7,6.0,30.63,SSW,209,6.0,12.0,44,0.00,,,0.00,weatherlink.com 1.10,2013-01-18 16:27:00,
2013-01-18 11:42:00,25.8,6.0,30.62,West,268,4.0,13.0,43,0.00,,,0.00,weatherlink.com 1.10,2013-01-18 16:42:00,
2013-01-18 11:57:00,25.0,5.0,30.62,NW,317,3.0,13.0,43,0.00,,,0.00,weatherlink.com 1.10,2013-01-18 16:57:00,
2013-01-18 12:12:00,26.1,7.0,30.63,WSW,256,5.0,9.0,45,0.00,,,0.00,weatherlink.com 1.10,2013-01-18 17:12:00,
2013-01-18 12:27:00,25.4,5.0,30.64,South,187,5.0,10.0,42,0.00,,,0.00,weatherlink.com 1.10,2013-01-18 17:27:00,
2013-01-18 12:42:00,25.4,5.0,30.64,South,181,7.0,10.0,42,0.00,,,0.00,weatherlink.com 1.10,2013-01-18 17:42:00,
2013-01-18 12:57:00,26.4,7.0,30.62,WSW,252,1.0,11.0,43,0.00,,,0.00,weatherlink.com 1.10,2013-01-18 17:57:00,
2013-01-18 13:12:00,28.0,7.0,30.63,East,94,2.0,6.0,42,0.00,,,0.00,weatherlink.com 1.10,2013-01-18 18:12:00,
2013-01-18 13:27:00,26.9,5.0,30.64,SW,218,7.0,13.0,40,0.00,,,0.00,weatherlink.com 1.10,2013-01-18 18:27:00,
2013-01-18 13:42:00,26.8,6.0,30.65,SSW,200,2.0,11.0,42,0.00,,,0.00,weatherlink.com 1.10,2013-01-18 18:42:00,
2013-01-18 13:57:00,27.4,6.0,30.65,SSW,205,1.0,8.0,40,0.00,,,0.00,weatherlink.com 1.10,2013-01-18 18:57:00,
2013-01-18 14:12:00,27.1,6.0,30.64,East,87,3.0,14.0,41,0.00,,,0.00,weatherlink.com 1.10,2013-01-18 19:12:00,
2013-01-18 14:27:00,26.1,6.0,30.65,SSE,158,6.0,14.0,42,0.00,,,0.00,weatherlink.com 1.10,2013-01-18 19:27:00,
2013-01-18 14:42:00,26.0,7.0,30.64,West,267,4.0,10.0,44,0.00,,,0.00,weatherlink.com 1.10,2013-01-18 19:42:00,
2013-01-18 14:57:00,25.4,6.0,30.65,South,174,6.0,15.0,44,0.00,,,0.00,weatherlink.com 1.10,2013-01-18 19:57:00,
2013-01-18 15:12:00,24.1,6.0,30.65,WNW,290,5.0,9.0,46,0.00,,,0.00,weatherlink.com 1.10,2013-01-18 20:12:00,
2013-01-18 15:27:00,23.7,7.0,30.65,WSW,237,4.0,8.0,48,0.00,,,0.00,weatherlink.com 1.10,2013-01-18 20:27:00,
2013-01-18 15:42:00,23.2,6.0,30.65,WSW,255,1.0,7.0,48,0.00,,,0.00,weatherlink.com 1.10,2013-01-18 20:42:00,
2013-01-18 15:57:00,23.0,6.0,30.66,SSE,156,1.0,6.0,48,0.00,,,0.00,weatherlink.com 1.10,2013-01-18 20:57:00,
2013-01-18 16:12:00,22.7,7.0,30.66,South,180,3.0,6.0,50,0.00,,,0.00,weatherlink.com 1.10,2013-01-18 21:12:00,
2013-01-18 16:27:00,22.7,6.0,30.66,SSE,168,0.0,6.0,48,0.00,,,0.00,weatherlink.com 1.10,2013-01-18 21:27:00,
2013-01-18 16:42:00,22.5,6.0,30.66,SSW,200,0.0,5.0,49,0.00,,,0.00,weatherlink.com 1.10,2013-01-18 21:42:00,
2013-01-18 16:57:00,22.2,6.0,30.66,East,99,2.0,4.0,51,0.00,,,0.00,weatherlink.com 1.10,2013-01-18 21:57:00,
2013-01-18 17:12:00,22.0,7.0,30.67,ENE,78,1.0,6.0,53,0.00,,,0.00,weatherlink.com 1.10,2013-01-18 22:12:00,
2013-01-18 17:27:00,21.2,8.0,30.68,ENE,78,0.0,1.0,56,0.00,,,0.00,weatherlink.com 1.10,2013-01-18 22:27:00,
2013-01-18 17:42:00,20.8,8.0,30.68,ENE,78,0.0,1.0,57,0.00,,,0.00,weatherlink.com 1.10,2013-01-18 22:42:00,
2013-01-18 17:57:00,20.3,9.0,30.68,ENE,78,0.0,1.0,63,0.00,,,0.00,weatherlink.com 1.10,2013-01-18 22:57:00,
2013-01-18 18:13:00,19.8,9.0,30.68,ENE,78,1.0,1.0,62,0.00,,,0.00,weatherlink.com 1.10,2013-01-18 23:13:00,
2013-01-18 18:28:00,19.3,9.0,30.69,ENE,78,0.0,1.0,64,0.00,,,0.00,weatherlink.com 1.10,2013-01-18 23:28:00,
2013-01-18 18:43:00,19.0,8.0,30.68,East,80,0.0,2.0,63,0.00,,,0.00,weatherlink.com 1.10,2013-01-18 23:43:00,
2013-01-18 18:58:00,19.0,9.0,30.68,East,90,0.0,2.0,64,0.00,,,0.00,weatherlink.com 1.10,2013-01-18 23:58:00,
2013-01-18 19:13:00,18.8,8.0,30.68,East,101,1.0,2.0,63,0.00,,,0.00,weatherlink.com 1.10,2013-01-19 00:13:00,
2013-01-18 19:43:00,19.0,10.0,30.68,ESE,103,0.0,3.0,67,0.00,,,0.00,weatherlink.com 1.10,2013-01-19 00:43:00,
2013-01-18 19:58:00,19.2,10.0,30.67,East,97,0.0,3.0,67,0.00,,,0.00,weatherlink.com 1.10,2013-01-19 00:58:00,
2013-01-18 20:13:00,19.1,10.0,30.67,ESE,105,0.0,2.0,69,0.00,,,0.00,weatherlink.com 1.10,2013-01-19 01:13:00,
2013-01-18 20:28:00,18.9,10.0,30.67,ESE,104,0.0,3.0,67,0.00,,,0.00,weatherlink.com 1.10,2013-01-19 01:28:00,
2013-01-18 20:43:00,19.0,9.0,30.67,ESE,102,0.0,2.0,65,0.00,,,0.00,weatherlink.com 1.10,2013-01-19 01:43:00,
2013-01-18 20:58:00,20.2,9.0,30.67,SW,229,2.0,4.0,61,0.00,,,0.00,weatherlink.com 1.10,2013-01-19 01:58:00,
2013-01-18 21:13:00,21.1,8.0,30.67,ESE,109,0.0,5.0,57,0.00,,,0.00,weatherlink.com 1.10,2013-01-19 02:13:00,
2013-01-18 21:28:00,21.6,8.0,30.66,ESE,105,2.0,3.0,57,0.00,,,0.00,weatherlink.com 1.10,2013-01-19 02:28:00,
2013-01-18 21:43:00,21.8,8.0,30.67,ESE,103,3.0,8.0,56,0.00,,,0.00,weatherlink.com 1.10,2013-01-19 02:43:00,
2013-01-18 21:58:00,22.1,8.0,30.66,ESE,113,0.0,5.0,54,0.00,,,0.00,weatherlink.com 1.10,2013-01-19 02:58:00,
2013-01-18 22:13:00,21.8,8.0,30.65,ENE,67,1.0,5.0,56,0.00,,,0.00,weatherlink.com 1.10,2013-01-19 03:13:00,
2013-01-18 22:28:00,21.7,9.0,30.65,ESE,111,2.0,5.0,58,0.00,,,0.00,weatherlink.com 1.10,2013-01-19 03:28:00,
2013-01-18 22:43:00,21.8,9.0,30.64,East,101,0.0,2.0,58,0.00,,,0.00,weatherlink.com 1.10,2013-01-19 03:43:00,
2013-01-18 22:58:00,22.1,10.0,30.64,ESE,115,2.0,3.0,60,0.00,,,0.00,weatherlink.com 1.10,2013-01-19 03:58:00,
2013-01-18 23:13:00,22.6,10.0,30.63,ENE,65,4.0,5.0,59,0.00,,,0.00,weatherlink.com 1.10,2013-01-19 04:13:00,
2013-01-18 23:28:00,23.0,11.0,30.62,East,82,3.0,7.0,60,0.00,,,0.00,weatherlink.com 1.10,2013-01-19 04:28:00,
2013-01-18 23:43:00,23.1,11.0,30.61,ENE,59,2.0,5.0,61,0.00,,,0.00,weatherlink.com 1.10,2013-01-19 04:43:00,
2013-01-18 23:58:00,23.2,11.0,30.61,SW,221,0.0,8.0,60,0.00,,,0.00,weatherlink.com 1.10,2013-01-19 04:58:00,